ICEYE-X46

导读 | 豆包AI

ICEYE-X46是一颗计划于2025年3月15日发射的卫星,其发射国家暂未公布(标注为TBD)。该卫星延续ICEYE系列合成孔径雷达卫星特性,有望延续该系列在高分辨率地球观测、灾害监测、海上监测等领域的技术特点,进一步拓展全球雷达遥感观测能力,为相关领域应用提供新的数据支撑。

Basic Information
目录编号:
63258
目录名称:
ICEYE-X46
国际标识:
2025-052BA
轨道中心:
EARTH
卫星名称:
ICEYE-X46
卫星全名:
ICEYE-X46
卫星状态:
在轨 (已飞行364 天)
发射日期:
2025-03-15 UTC
国别 :
(FI)
星等 :
--
Orbit Information
数据来源 国际轨道数据
星历时间: 2026-03-13T14:18:59+0800
20小时前
查看轨道信息
半长轴: 6959.679km
偏心率: 0.0001968
轨道倾角: 97.701°
近地点辐角 79.272°
升交点赤经 325.934°
平近点角 280.873°
近地点: 580.172km
远地点: 582.912km
周期: 96.304分钟
每日圈数: 14.952677
Detailed Information
使用方式:
暂无
2D Orbit Map
3D Orbit Map
Orbit Altitude Analysis Chart
Orbit Inclination Analysis Chart
Orbit Comprehensive Analysis Chart
View Comprehensive Chart